• In Romania
  • List of Countries
  • For 7 days
  • Water Temperature
  • Satellite Maps
  • Weather Map
  • Weather Widgets
  • user-avatar
    Login

    Hourly Weather Canberra

    Today, 26 March, Sunday

    Time Temperature Precipitation Wind Pressure Humidity
    00:00 +14°C° 0 mm 1 mps 708 mmHg 96%
    01:00 +14°C° 0 mm 1 mps 708 mmHg 95%
    02:00 +14°C° 0 mm 1 mps 708 mmHg 95%
    03:00 +14°C° 0 mm 1 mps 708 mmHg 95%
    04:00 +14°C° 0 mm 1 mps 708 mmHg 92%
    05:00 +14°C° 0 mm 1 mps 708 mmHg 89%
    06:00 +15°C° 0 mm 1 mps 709 mmHg 86%
    07:00 +16°C° 0 mm 1 mps 709 mmHg 82%
    08:00 +20°C° 0 mm 1 mps 709 mmHg 69%
    09:00 +24°C° 0 mm 1 mps 710 mmHg 56%
    10:00 +26°C° 0 mm 0 mps 711 mmHg 42%
    11:00 +28°C° 0 mm 1 mps 711 mmHg 39%
    12:00 +29°C° 0 mm 1 mps 710 mmHg 36%
    13:00 +30°C° 0 mm 1 mps 710 mmHg 33%
    14:00 +30°C° 0 mm 1 mps 710 mmHg 34%
    15:00 +29°C° 0 mm 1 mps 710 mmHg 35%
    16:00 +28°C° 0 mm 1 mps 709 mmHg 37%
    17:00 +26°C° 0 mm 1 mps 709 mmHg 48%
    18:00 +23°C° 0 mm 1 mps 709 mmHg 59%
    19:00 +20°C° 0 mm 1 mps 709 mmHg 70%
    20:00 +20°C° 0 mm 1 mps 709 mmHg 76%
    21:00 +19°C° 0 mm 1 mps 709 mmHg 81%
    22:00 +16°C° 0 mm 1 mps 710 mmHg 87%
    23:00 +16°C° 0 mm 1 mps 709 mmHg 89%

    Tomorrow, 27 March, Monday

    Time Temperature Precipitation Wind Pressure Humidity
    00:00 +15°C° 0 mm 1 mps 709 mmHg 91%
    01:00 +15°C° 0 mm 1 mps 709 mmHg 94%
    02:00 +15°C° 0 mm 1 mps 709 mmHg 95%
    03:00 +14°C° 0 mm 1 mps 708 mmHg 96%
    04:00 +14°C° 0 mm 1 mps 708 mmHg 96%
    05:00 +15°C° 0 mm 1 mps 708 mmHg 94%
    06:00 +16°C° 0 mm 1 mps 709 mmHg 92%
    07:00 +18°C° 0 mm 1 mps 709 mmHg 90%
    08:00 +21°C° 0 mm 1 mps 709 mmHg 76%
    09:00 +24°C° 0 mm 2 mps 709 mmHg 63%
    10:00 +27°C° 0 mm 3 mps 709 mmHg 50%
    11:00 +28°C° 0 mm 3 mps 709 mmHg 46%
    12:00 +30°C° 0 mm 3 mps 708 mmHg 42%
    13:00 +32°C° 0 mm 4 mps 708 mmHg 39%
    14:00 +32°C° 0 mm 4 mps 707 mmHg 39%
    15:00 +31°C° 0 mm 3 mps 707 mmHg 39%
    16:00 +31°C° 0 mm 3 mps 706 mmHg 38%
    17:00 +29°C° 0 mm 3 mps 706 mmHg 47%
    18:00 +26°C° 0 mm 2 mps 706 mmHg 56%
    19:00 +24°C° 0 mm 2 mps 705 mmHg 64%
    20:00 +23°C° 0 mm 2 mps 706 mmHg 68%
    21:00 +22°C° 0 mm 1 mps 706 mmHg 71%
    22:00 +22°C° 0 mm 1 mps 706 mmHg 75%
    23:00 +21°C° 0.2 mm 1 mps 706 mmHg 80%

    Day after tomorrow, 28 March, Tuesday

    Time Temperature Precipitation Wind Pressure Humidity
    00:00 +20°C° 0.2 mm 1 mps 706 mmHg 86%
    01:00 +19°C° 0.2 mm 1 mps 706 mmHg 91%
    02:00 +19°C° 0.1 mm 1 mps 706 mmHg 93%
    03:00 +18°C° 0.1 mm 1 mps 706 mmHg 95%
    04:00 +18°C° 0.1 mm 1 mps 707 mmHg 97%
    05:00 +18°C° 0 mm 1 mps 707 mmHg 96%
    06:00 +19°C° 0 mm 1 mps 707 mmHg 96%
    07:00 +19°C° 0 mm 1 mps 708 mmHg 95%
    08:00 +21°C° 0 mm 1 mps 708 mmHg 86%
    09:00 +23°C° 0 mm 1 mps 708 mmHg 76%
    10:00 +25°C° 0 mm 1 mps 709 mmHg 66%
    11:00 +26°C° 0 mm 2 mps 709 mmHg 58%
    12:00 +28°C° 0 mm 2 mps 708 mmHg 49%
    13:00 +30°C° 0 mm 3 mps 708 mmHg 41%
    14:00 +30°C° 0 mm 3 mps 708 mmHg 38%
    15:00 +29°C° 0 mm 3 mps 708 mmHg 36%
    16:00 +29°C° 0 mm 3 mps 708 mmHg 34%
    17:00 +26°C° 0 mm 2 mps 707 mmHg 44%
    18:00 +21°C° 0 mm 2 mps 707 mmHg 54%
    19:00 +18°C° 0 mm 1 mps 707 mmHg 64%
    20:00 +18°C° 0 mm 1 mps 707 mmHg 67%
    21:00 +16°C° 0 mm 1 mps 707 mmHg 69%
    22:00 +15°C° 0 mm 1 mps 708 mmHg 71%
    23:00 +15°C° 0 mm 1 mps 707 mmHg 73%

    29 March, Wednesday

    Time Temperature Precipitation Wind Pressure Humidity
    00:00 +15°C° 0 mm 1 mps 707 mmHg 75%
    01:00 +15°C° 0 mm 1 mps 707 mmHg 77%
    02:00 +14°C° 0 mm 1 mps 707 mmHg 77%
    03:00 +14°C° 0 mm 1 mps 706 mmHg 78%
    04:00 +14°C° 0 mm 1 mps 706 mmHg 78%
    05:00 +15°C° 0 mm 1 mps 706 mmHg 75%
    06:00 +15°C° 0 mm 1 mps 706 mmHg 72%
    07:00 +16°C° 0 mm 1 mps 707 mmHg 69%
    08:00 +21°C° 0 mm 1 mps 707 mmHg 60%
    09:00 +24°C° 0 mm 2 mps 708 mmHg 50%
    10:00 +28°C° 0 mm 3 mps 708 mmHg 41%
    11:00 +29°C° 0 mm 4 mps 708 mmHg 39%
    12:00 +30°C° 0 mm 5 mps 707 mmHg 38%
    13:00 +33°C° 0 mm 6 mps 707 mmHg 36%
    14:00 +33°C° 0 mm 5 mps 706 mmHg 36%
    15:00 +32°C° 0 mm 5 mps 706 mmHg 36%
    16:00 +32°C° 0 mm 4 mps 705 mmHg 36%
    17:00 +28°C° 0 mm 3 mps 705 mmHg 44%
    18:00 +25°C° 0 mm 2 mps 705 mmHg 51%
    19:00 +22°C° 0 mm 1 mps 705 mmHg 59%
    20:00 +22°C° 0 mm 1 mps 705 mmHg 60%
    21:00 +21°C° 0 mm 1 mps 705 mmHg 62%
    22:00 +21°C° 0 mm 1 mps 705 mmHg 63%
    23:00 +20°C° 0.1 mm 2 mps 705 mmHg 70%

    30 March, Thursday

    Time Temperature Precipitation Wind Pressure Humidity
    00:00 +20°C° 0.1 mm 2 mps 704 mmHg 76%
    01:00 +19°C° 0.1 mm 2 mps 704 mmHg 83%
    02:00 +19°C° 0.1 mm 2 mps 704 mmHg 84%
    03:00 +19°C° 0.1 mm 2 mps 704 mmHg 86%
    04:00 +20°C° 0.1 mm 1 mps 704 mmHg 87%
    05:00 +19°C° 0.4 mm 1 mps 704 mmHg 88%
    06:00 +18°C° 0.4 mm 2 mps 705 mmHg 88%
    07:00 +18°C° 0.4 mm 2 mps 706 mmHg 89%
    08:00 +17°C° 0.8 mm 2 mps 706 mmHg 89%
    09:00 +16°C° 0.8 mm 2 mps 707 mmHg 89%
    10:00 +16°C° 0.8 mm 2 mps 707 mmHg 88%
    11:00 +16°C° 1.4 mm 2 mps 707 mmHg 88%
    12:00 +15°C° 1.4 mm 2 mps 707 mmHg 88%
    13:00 +15°C° 1.4 mm 2 mps 707 mmHg 88%
    14:00 +13°C° 1.7 mm 3 mps 707 mmHg 88%
    15:00 +13°C° 1.7 mm 3 mps 707 mmHg 87%
    16:00 +12°C° 1.7 mm 3 mps 708 mmHg 87%
    17:00 +12°C° 0.2 mm 3 mps 708 mmHg 86%
    18:00 +11°C° 0.2 mm 3 mps 709 mmHg 86%
    19:00 +11°C° 0.2 mm 3 mps 710 mmHg 85%
    20:00 +10°C° 0 mm 3 mps 710 mmHg 84%
    21:00 +10°C° 0 mm 3 mps 710 mmHg 83%
    22:00 +9°C° 0 mm 3 mps 710 mmHg 82%
    23:00 +9°C° 0 mm 3 mps 710 mmHg 82%

    31 March, Friday

    Time Temperature Precipitation Wind Pressure Humidity
    00:00 +8°C° 0 mm 3 mps 710 mmHg 81%
    01:00 +8°C° 0 mm 2 mps 710 mmHg 80%
    02:00 +7°C° 0 mm 2 mps 710 mmHg 81%
    03:00 +7°C° 0 mm 2 mps 710 mmHg 82%
    04:00 +7°C° 0 mm 2 mps 710 mmHg 82%
    05:00 +7°C° 0 mm 2 mps 711 mmHg 82%
    06:00 +7°C° 0 mm 2 mps 711 mmHg 82%
    07:00 +7°C° 0 mm 2 mps 711 mmHg 82%
    08:00 +10°C° 0 mm 2 mps 712 mmHg 74%
    09:00 +12°C° 0 mm 3 mps 712 mmHg 65%
    10:00 +14°C° 0 mm 3 mps 712 mmHg 57%
    11:00 +17°C° 0 mm 3 mps 712 mmHg 54%
    12:00 +18°C° 0 mm 2 mps 711 mmHg 50%
    13:00 +19°C° 0 mm 2 mps 711 mmHg 47%
    14:00 +19°C° 0 mm 2 mps 711 mmHg 49%
    15:00 +19°C° 0 mm 2 mps 710 mmHg 51%
    16:00 +18°C° 0 mm 2 mps 710 mmHg 53%
    17:00 +16°C° 0 mm 2 mps 710 mmHg 65%
    18:00 +14°C° 0 mm 2 mps 710 mmHg 77%
    19:00 +11°C° 0 mm 1 mps 710 mmHg 89%
    20:00 +11°C° 0 mm 1 mps 710 mmHg 92%
    21:00 +10°C° 0 mm 1 mps 710 mmHg 95%
    22:00 +10°C° 0 mm 1 mps 711 mmHg 97%
    23:00 +9°C° 0 mm 1 mps 710 mmHg 97%
    Show more